Other Public Products
Issued by NWS Grand Forks, ND

Home | Current Version | Previous Version | Text Only | Print | Product List | Glossary Off
Versions: 1 2 3 4 5 6 7 8 9 10 11 12 13 14 15 16 17 18 19 20 21 22 23 24 25 26 27 28 29 30 31 32 33 34 35 36 37 38 39 40 41 42 43 44 45 46 47 48 49 50

000
FPUS83 KFGF 211231
OPUFGF
PRAIRIE TO PINES WEATHER ROUNDUP
NATIONAL WEATHER SERVICE EASTERN NORTH DAKOTA/GRAND FORKS ND
700 AM CDT SUN SEP 21 2014

 **SATELLITE DATA USED TO AUGMENT SKY COVER AT AUTOMATED STATIONS**
 *****  WEATHER ACROSS EASTERN NORTH DAKOTA  *****

CITY           SKY/WX    TMP DP  RH WIND       PRES   REMARKS
GRAND FORKS    PTCLDY    47  46  97 W6        30.12R
6HR MIN TEMP:  47; 6HR MAX TEMP:  54;

GRAND FORKS AF CLEAR     49  49  99 NW9       30.14R
GRAND CITY NWS   N/A     48 N/A N/A NW9         N/A
BUXTON           N/A     49  49  99 NW8         N/A
DEVILS LAKE    CLEAR     48  41  76 NW8       30.17R
6HR MIN TEMP:  46; 6HR MAX TEMP:  55;

FARGO          CLEAR     50  47  89 NW8       30.12R
6HR MIN TEMP:  49; 6HR MAX TEMP:  55;

WAHPETON ARPT  SUNNY     45  43  93 NW7       30.14R
$$

 *****  WEATHER ACROSS CENTRAL AND WESTERN NORTH DAKOTA  *****

CITY           SKY/WX    TMP DP  RH WIND       PRES   REMARKS
JAMESTOWN      CLEAR     47  44  90 NW8       30.17R
6HR MIN TEMP:  47; 6HR MAX TEMP:  57;

BISMARCK       CLEAR     48  42  80 W6        30.25R
6HR MIN TEMP:  44; 6HR MAX TEMP:  55;

MINOT          CLEAR     46  40  79 SW9       30.21R
6HR MIN TEMP:  46; 6HR MAX TEMP:  54;

MINOT AFB      CLEAR     46  43  90 W10       30.21R
6HR MIN TEMP:  46; 6HR MAX TEMP:  51;

GARRISON         N/A     44  40  85 NW9       30.22R
6HR MIN TEMP:  44; 6HR MAX TEMP:  51;

WILLISTON      CLEAR     38  34  85 SW5       30.27R
6HR MIN TEMP:  38; 6HR MAX TEMP:  52;

DICKINSON      CLEAR     41  34  76 W10       30.27R
6HR MIN TEMP:  40; 6HR MAX TEMP:  47;

HETTINGER      CLEAR     37  32  82 NW8       30.30R
6HR MIN TEMP:  35; 6HR MAX TEMP:  45;

$$

 *****  OTHER OBSERVATIONS NORTHEAST NORTH DAKOTA  *****

CITY           SKY/WX    TMP DP  RH WIND       PRES   REMARKS
WALHALLA         N/A     50  50 100 NW8       30.15R
LANGDON        PTSUNNY   46  46 100 NW9       30.16R
CAVALIER       CLOUDY    50  48  93 NW8       30.14R
GRAFTON        FAIR      48  48 100 NW8       30.13R
CANDO          FAIR      43  41  93 NW6       30.19R
FORT TOTTEN      N/A     51  48  89 NW3       29.95S
ROLLA          PTSUNNY   48  48 100 NW8       30.20R
RUGBY          FAIR      39  39 100 W5        30.20R
 ***** THE ABOVE OBSERVATIONS ARE NON NWS ARE NOT QUALITY
        CONTROLLED AND MAY MIS-REPORT RAIN FOR SNOW...
$$

 *****  OTHER OBSERVATIONS SOUTHEAST NORTH DAKOTA *****

CITY           SKY/WX    TMP DP  RH WIND       PRES   REMARKS
COOPERSTOWN    NOT AVBL
VALLEY CITY    FAIR      46  46 100 NW8       30.17R
OAKES            N/A     46  46 100 NW7       30.17R
GWINNER        SUNNY     48  48 100 NW8       30.17R
SHEYENNE NWR     N/A     49  47  91 NW6       29.95
BUFFALO          N/A     46  44  93 NW5         N/A
WYNDMERE         N/A     46  46 100 NW5         N/A
 ***** THE ABOVE OBSERVATIONS ARE NON NWS ARE NOT QUALITY
       CONTROLLED AND MAY MIS-REPORT RAIN FOR SNOW...
$$

  *****  WEATHER ACROSS NORTHERN MINNESOTA  *****

CITY           SKY/WX    TMP DP  RH WIND       PRES   REMARKS
FLAG ISLAND    CLEAR     52  48  87 N8        30.06R
WARROAD        MOCLDY    50  46  87 NW5       30.08R
ROSEAU         CLOUDY    54  48  82 NW6       30.09R
HALLOCK        CLOUDY    52  50  93 N10       30.12R FOG
THF RVR FALLS  CLOUDY    52  48  87 NW14      30.10R
6HR MIN TEMP:  50; 6HR MAX TEMP:  52;

HALSTAD          N/A     47  45  91 NW6         N/A
FOSSTON        CLOUDY    48  48 100 NW7       30.10R
BAUDETTE       PTCLDY    47  46  97 NW5       30.07R FOG
6HR MIN TEMP:  48; 6HR MAX TEMP:  50; 6HR PCP:  0.01;

WASKISH        CLOUDY    48  48 100 CALM      30.06R FOG
CROOKSTON      CLOUDY    50  48  93 N7        30.13R
$$
  *****  WEATHER ACROSS CENTRAL AND WEST MINNESOTA  *****

CITY           SKY/WX    TMP DP  RH WIND       PRES   REMARKS
BEMIDJI        DRIZZLE   51  50  98 NW7       30.06R
PARK RAPIDS    CLOUDY    51  49  92 NW8       30.06R
6HR MIN TEMP:  47; 6HR MAX TEMP:  51;

WADENA         CLOUDY    50  48  93 NW3       30.08R
DETROIT LAKES  CLOUDY    50  50 100 NW13      30.11R
MOORHEAD       PTCLDY    52  52 100 N7        30.14R
FERGUS FALLS   CLOUDY    52  48  87 N15       30.13R
ELBOW LAKE     CLOUDY    51  49  93 N10G16    30.11R
6HR MIN TEMP:  49; 6HR MAX TEMP:  53;

MORRIS MN      CLEAR     48  46  93 NW7       30.11R
STAPLES        CLOUDY    48  46  93 CALM      30.07R
WHEATON        CLEAR     46  45  93 NW6       30.15R
$$
  *****  WEATHER ELSEWHERE ACROSS MINNESOTA  *****

CITY           SKY/WX    TMP DP  RH WIND       PRES   REMARKS
DULUTH         CLOUDY    52  48  86 NW9       29.99R
6HR MIN TEMP:  52; 6HR MAX TEMP:  53; 6HR PCP:  0.03;

INTRNTL FALLS  MOCLDY    48  46  93 NW6       30.04R
6HR MIN TEMP:  48; 6HR MAX TEMP:  50; 6HR PCP:  0.01;

ELY            CLOUDY    45  43  93 CALM      30.00R
CLOQUET        MOCLDY    52  48  87 NW9       30.00R
BRAINERD       CLEAR     48  46  93 N6        30.05R
6HR MIN TEMP:  48; 6HR MAX TEMP:  51;

HIBBING        CLOUDY    50  47  89 NW12      30.01R
6HR MIN TEMP:  50; 6HR MAX TEMP:  52; 6HR PCP:  0.03;

ALEXANDRIA     PTCLDY    52  49  89 NW9       30.11R
6HR MIN TEMP:  51; 6HR MAX TEMP:  53;

SAINT CLOUD    CLEAR     50  46  86 NW8       30.04R
6HR MIN TEMP:  50; 6HR MAX TEMP:  56;

MINNEAPOLIS    MOCLDY    53  47  79 NW14      30.00R
6HR MIN TEMP:  53; 6HR MAX TEMP:  57;

$$

  *****  WEATHER ACROSS SOUTH DAKOTA  *****

CITY           SKY/WX    TMP DP  RH WIND       PRES   REMARKS
SIOUX FALLS    CLEAR     50  43  77 NW10      30.15R
6HR MIN TEMP:  50; 6HR MAX TEMP:  57;

BROOKINGS      NOT AVBL
WATERTOWN      CLEAR     48  45  89 N8        30.15R
6HR MIN TEMP:  48; 6HR MAX TEMP:  57;

HURON          CLEAR     45  40  82 NW8       30.19R
6HR MIN TEMP:  45; 6HR MAX TEMP:  53;

SISSETON         N/A     47  46  97 N7        30.13R
ABERDEEN       CLEAR     47  42  83 W6        30.18R
6HR MIN TEMP:  47; 6HR MAX TEMP:  57;

MITCHELL       CLEAR     48  42  80 W8        30.20R
PIERRE         CLEAR     45  41  86 SW5       30.24R
6HR MIN TEMP:  45; 6HR MAX TEMP:  53;

MOBRIDGE       CLEAR     45  41  86 N7        30.23R
RAPID CITY     CLEAR     43  35  73 NW8       30.33R
6HR MIN TEMP:  43; 6HR MAX TEMP:  55;

$$

  *****  SOME WEATHER IN NEARBY STATES *****

CITY           SKY/WX    TMP DP  RH WIND       PRES   REMARKS
GLASGOW MT     CLEAR     40  35  83 N3        30.27S
6HR MIN TEMP:  39; 6HR MAX TEMP:  52;

GREAT FALLS MT CLEAR     42  39  89 SW9       30.25S
6HR MIN TEMP:  42; 6HR MAX TEMP:  55;

CHEYENNE WY    CLOUDY    54  38  54 S6        30.40S
6HR MIN TEMP:  53; 6HR MAX TEMP:  57;

SCOTTSBLUFF NE MOCLDY    50  43  77 CALM      30.35S
6HR MIN TEMP:  49; 6HR MAX TEMP:  57;

OMAHA NE       CLEAR     56  46  69 W7        30.15R
6HR MIN TEMP:  53; 6HR MAX TEMP:  62;

DES MOINES IA  CLEAR     56  47  71 NW9       30.04R
6HR MIN TEMP:  56; 6HR MAX TEMP:  62;

DAVENPORT IA   CLEAR     54  50  86 W13       29.92R
6HR MIN TEMP:  53; 6HR MAX TEMP:  63;

CHICAGO IL     PTCLDY    58  51  78 W14G24    29.79S
6HR MIN TEMP:  58; 6HR MAX TEMP:  66; 6HR PCP: TRACE;

EAU CLAIRE WI  CLOUDY    53  50  89 NW14      29.89R
6HR MIN TEMP:  52; 6HR MAX TEMP:  56; 6HR PCP: TRACE;

LA CROSSE WI   CLOUDY    57  48  72 NW18G28   29.88R
6HR MIN TEMP:  57; 6HR MAX TEMP:  61;

$$

  *****  SOME NATIONAL WEATHER *****

CITY           SKY/WX    TMP DP  RH WIND       PRES   REMARKS



USA.gov is the U.S. government's official web portal to all federal, state and local government web resources and services.